START_TIME,STEP,MOV.,M6,t_acc.,M7,t_acc.,M19,t_acc.,H36,t_acc.
1979-07-26 06:00:26.450 ,0,1,0.,12.0,0.,12.0,0.,12.0,0.,12.0
1979-07-26 06:00:38.450 ,0,1,0.,12.0,0.,12.0,0.,12.0,0.,12.0
1979-07-26 06:00:50.450 ,3,1,0.,12.0,0.,12.0,0.,12.0,0.,12.0
1979-07-26 06:01:02.450 ,3,1,0.,12.0,0.,12.0,0.,12.0,0.,12.0
1979-07-26 06:01:14.450 ,7,1,0.,12.0,0.,12.0,0.,12.0,0.,12.0
1979-07-26 06:01:26.450 ,7,1,0.,12.0,0.,12.0,0.,12.0,0.,12.0
1979-07-26 06:01:38.450 ,4,1,0.,12.0,0.,12.0,0.,12.0,0.,12.0
1979-07-26 06:01:50.450 ,4,1,0.,12.0,0.,12.0,0.,12.0,0.,12.0
1979-07-26 06:02:02.450 ,0,1,0.,12.0,0.,12.0,0.,12.0,0.,12.0
1979-07-26 06:02:14.450 ,0,1,0.,12.0,0.,12.0,0.,12.0,0.,12.0
1979-07-26 06:02:26.450 ,3,1,0.,12.0,0.,12.0,0.,12.0,0.,12.0
1979-07-26 06:02:38.450 ,3,1,0.,12.0,0.,12.0,0.,12.0,0.,12.0
1979-07-26 06:02:50.450 ,7,1,0.,12.0,0.,12.0,0.,12.0,0.,12.0
1979-07-26 06:03:02.450 ,7,1,0.,12.0,0.,12.0,0.,12.0,0.,12.0
1979-07-26 06:03:14.450 ,4,1,0.,12.0,0.,12.0,0.,12.0,0.,12.0
1979-07-26 06:03:26.450 ,4,1,0.,12.0,0.,12.0,0.,12.0,0.,12.0
1979-07-26 06:03:38.450 ,0,1,0.,12.0,0.,12.0,0.,12.0,0.,12.0
1979-07-26 06:03:50.450 ,0,1,0.,12.0,0.,12.0,0.,12.0,0.,12.0
1979-07-26 06:04:02.450 ,3,1,0.,12.0,0.,12.0,0.,12.0,0.,12.0
1979-07-26 06:04:14.450 ,3,1,0.,12.0,0.,12.0,0.,12.0,0.,12.0
1979-07-26 06:04:26.450 ,7,1,0.,12.0,0.,12.0,0.,12.0,0.,12.0
1979-07-26 06:04:38.450 ,7,1,0.,12.0,0.,12.0,0.,12.0,0.,12.0
1979-07-26 06:04:50.450 ,4,1,0.,12.0,0.,12.0,0.,12.0,0.,12.0
1979-07-26 06:05:02.450 ,4,1,0.,12.0,0.,12.0,0.,12.0,0.,12.0
1979-07-26 06:05:14.450 ,0,1,0.,12.0,0.,12.0,0.,12.0,0.,12.0
1979-07-26 06:05:26.450 ,0,1,0.,12.0,0.,12.0,0.,12.0,0.,12.0
1979-07-26 06:05:38.450 ,0,0,0.,12.0,0.,12.0,0.,12.0,0.,12.0
1979-07-26 06:05:50.450 ,0,0,0.,12.0,0.,12.0,0.,12.0,0.,12.0
1979-07-26 06:06:02.450 ,0,0,0.,12.0,0.,12.0,0.,12.0,0.,12.0
1979-07-26 06:06:14.450 ,0,0,0.,12.0,0.,12.0,0.,12.0,0.,12.0
1979-07-26 06:06:26.450 ,5,1,0.,12.0,0.,12.0,0.,12.0,0.,12.0
1979-07-26 06:06:38.450 ,5,1,0.,12.0,0.,12.0,0.,12.0,0.,12.0
1979-07-26 06:06:50.450 ,5,0,0.,12.0,0.,12.0,0.,12.0,0.,12.0
1979-07-26 06:07:02.450 ,5,0,0.,12.0,0.,12.0,0.,12.0,0.,12.0
1979-07-26 06:07:14.450 ,4,1,0.,12.0,0.,12.0,0.,12.0,0.,12.0
1979-07-26 06:07:26.450 ,4,1,0.,12.0,0.,12.0,0.,12.0,0.,12.0
1979-07-26 06:07:38.450 ,4,0,0.,12.0,0.,12.0,0.,12.0,0.,12.0
1979-07-26 06:07:50.450 ,4,0,0.,12.0,0.,12.0,0.,12.0,0.,12.0
1979-07-26 06:08:02.450 ,3,1,0.,12.0,0.,12.0,0.,12.0,0.,12.0
1979-07-26 06:08:14.450 ,3,1,0.,12.0,0.,12.0,0.,12.0,0.,12.0
1979-07-26 06:08:26.450 ,3,0,0.,12.0,0.,12.0,0.,12.0,0.,12.0
1979-07-26 06:08:38.450 ,3,0,0.,12.0,0.,12.0,0.,12.0,0.,12.0
1979-07-26 06:08:50.450 ,2,1,0.,12.0,0.,12.0,0.,12.0,0.,12.0
1979-07-26 06:09:02.450 ,2,1,0.,12.0,0.,12.0,0.,12.0,0.,12.0
1979-07-26 06:09:14.450 ,2,0,0.,12.0,0.,12.0,0.,12.0,0.,12.0
1979-07-26 06:09:26.450 ,2,0,0.,12.0,0.,12.0,0.,12.0,0.,12.0
1979-07-26 06:09:38.450 ,1,1,0.,12.0,0.,12.0,0.,12.0,0.,12.0
1979-07-26 06:09:50.450 ,1,1,0.,12.0,0.,12.0,0.,12.0,0.,12.0
1979-07-26 06:10:02.450 ,1,0,0.,12.0,0.,12.0,0.,12.0,0.,12.0
1979-07-26 06:10:14.450 ,1,0,0.,12.0,0.,12.0,0.,12.0,0.,12.0
1979-07-26 06:10:26.450 ,0,1,0.,12.0,0.,12.0,0.,12.0,0.,12.0
1979-07-26 06:10:38.450 ,0,1,0.,12.0,0.,12.0,0.,12.0,0.,12.0
1979-07-26 06:10:50.450 ,0,0,0.,12.0,0.,12.0,0.,12.0,0.,12.0
1979-07-26 06:11:02.450 ,0,0,0.,12.0,0.,12.0,0.,12.0,0.,12.0
1979-07-26 06:11:14.450 ,0,1,0.,12.0,0.,12.0,0.,12.0,0.,12.0
1979-07-26 06:11:26.450 ,0,1,0.,12.0,0.,12.0,0.,12.0,0.,12.0
1979-07-26 06:11:38.450 ,0,0,0.,12.0,0.,12.0,0.,12.0,0.,12.0
1979-07-26 06:11:50.450 ,0,0,0.,12.0,0.,12.0,0.,12.0,0.,12.0
1979-07-26 06:12:02.450 ,1,1,0.,12.0,0.,12.0,0.,12.0,0.,12.0
1979-07-26 06:12:14.450 ,1,1,0.,12.0,0.,12.0,0.,12.0,0.,12.0
1979-07-26 06:12:26.450 ,1,0,0.,12.0,0.,12.0,0.,12.0,0.,12.0
1979-07-26 06:12:38.450 ,1,0,0.,12.0,0.,12.0,0.,12.0,0.,12.0
1979-07-26 06:12:50.450 ,2,1,0.,12.0,0.,12.0,0.,12.0,0.,12.0
1979-07-26 06:13:02.450 ,2,1,0.,12.0,0.,12.0,0.,12.0,0.,12.0
1979-07-26 06:13:14.450 ,2,0,0.,12.0,0.,12.0,0.,12.0,0.,12.0
1979-07-26 06:13:26.450 ,2,0,0.,12.0,0.,12.0,0.,12.0,0.,12.0
1979-07-26 06:13:38.450 ,3,1,0.,12.0,0.,12.0,0.,12.0,0.,12.0
1979-07-26 06:13:50.450 ,3,1,0.,12.0,0.,12.0,0.,12.0,0.,12.0
1979-07-26 06:14:02.450 ,3,0,0.,12.0,0.,12.0,0.,12.0,0.,12.0
1979-07-26 06:14:14.450 ,3,0,0.,12.0,0.,12.0,0.,12.0,0.,12.0
1979-07-26 06:14:26.450 ,4,1,0.,12.0,0.,12.0,0.,12.0,0.,12.0
1979-07-26 06:14:38.450 ,4,1,0.,12.0,0.,12.0,0.,12.0,0.,12.0
1979-07-26 06:14:50.450 ,4,0,0.,12.0,0.,12.0,0.,12.0,0.,12.0
1979-07-26 06:15:02.450 ,4,0,0.,12.0,0.,12.0,0.,12.0,0.,12.0
1979-07-26 06:15:14.450 ,5,1,0.,12.0,0.,12.0,0.,12.0,0.,12.0
1979-07-26 06:15:26.450 ,5,1,0.,12.0,0.,12.0,0.,12.0,0.,12.0
1979-07-26 06:15:38.450 ,5,0,0.,12.0,0.,12.0,0.,12.0,0.,12.0
1979-07-26 06:15:50.450 ,5,0,0.,12.0,0.,12.0,0.,12.0,0.,12.0
1979-07-26 06:16:02.450 ,6,1,0.,12.0,0.,12.0,0.,12.0,0.,12.0
1979-07-26 06:16:14.450 ,6,1,0.,12.0,0.,12.0,0.,12.0,0.,12.0
1979-07-26 06:16:26.450 ,6,0,0.,12.0,0.,12.0,0.,12.0,0.,12.0
1979-07-26 06:16:38.450 ,6,0,0.,12.0,0.,12.0,0.,12.0,0.,12.0
1979-07-26 06:16:50.450 ,7,1,0.,12.0,0.,12.0,0.,12.0,0.,12.0
1979-07-26 06:17:02.450 ,7,1,0.,12.0,0.,12.0,0.,12.0,0.,12.0
1979-07-26 06:17:14.450 ,7,0,0.,12.0,0.,12.0,0.,12.0,0.,12.0
1979-07-26 06:17:26.450 ,7,0,0.,12.0,0.,12.0,0.,12.0,0.,12.0
1979-07-26 06:17:38.450 ,7,1,0.,12.0,0.,12.0,0.,12.0,0.,12.0
1979-07-26 06:17:50.450 ,7,1,0.,12.0,0.,12.0,0.,12.0,0.,12.0
1979-07-26 06:18:02.450 ,7,0,0.,12.0,0.,12.0,0.,12.0,0.,12.0
1979-07-26 06:18:14.450 ,7,0,0.,12.0,0.,12.0,0.,12.0,0.,12.0
1979-07-26 06:18:26.450 ,6,1,0.,12.0,0.,12.0,0.,12.0,0.,12.0
1979-07-26 06:18:38.450 ,6,1,0.,12.0,0.,12.0,0.,12.0,0.,12.0
1979-07-26 06:18:50.450 ,6,0,0.,12.0,0.,12.0,0.,12.0,0.,12.0
1979-07-26 06:19:02.450 ,6,0,0.,12.0,0.,12.0,0.,12.0,0.,12.0
1979-07-26 06:19:14.450 ,5,1,0.,12.0,0.,12.0,0.,12.0,0.,12.0
1979-07-26 06:19:26.450 ,5,1,0.,12.0,0.,12.0,0.,12.0,0.,12.0
1979-07-26 06:19:38.450 ,5,0,0.,12.0,0.,12.0,0.,12.0,0.,12.0
1979-07-26 06:19:50.450 ,5,0,0.,12.0,0.,12.0,0.,12.0,0.,12.0
1979-07-26 06:20:02.450 ,4,1,0.,12.0,0.,12.0,0.,12.0,0.,12.0
1979-07-26 06:20:14.450 ,4,1,0.,12.0,0.,12.0,0.,12.0,0.,12.0
1979-07-26 06:20:26.450 ,4,0,0.,12.0,0.,12.0,0.,12.0,0.,12.0
1979-07-26 06:20:38.450 ,4,0,0.,12.0,0.,12.0,0.,12.0,0.,12.0
1979-07-26 06:20:50.450 ,3,1,0.,12.0,0.,12.0,0.,12.0,0.,12.0
1979-07-26 06:21:02.450 ,3,1,0.,12.0,0.,12.0,0.,12.0,0.,12.0
1979-07-26 06:21:14.450 ,3,0,0.,12.0,0.,12.0,0.,12.0,0.,12.0
1979-07-26 06:21:26.450 ,3,0,0.,12.0,0.,12.0,0.,12.0,0.,12.0
1979-07-26 06:21:38.450 ,2,1,0.,12.0,0.,12.0,0.,12.0,0.,12.0
1979-07-26 06:21:50.450 ,2,1,0.,12.0,0.,12.0,0.,12.0,0.,12.0
1979-07-26 06:22:02.450 ,2,0,0.,12.0,0.,12.0,0.,12.0,0.,12.0
1979-07-26 06:22:14.450 ,2,0,0.,12.0,0.,12.0,0.,12.0,0.,12.0
1979-07-26 06:22:26.450 ,1,1,0.,12.0,0.,12.0,0.,12.0,0.,12.0
1979-07-26 06:22:38.450 ,1,1,0.,12.0,0.,12.0,0.,12.0,0.,12.0
1979-07-26 06:22:50.450 ,1,0,0.,12.0,0.,12.0,0.,12.0,0.,12.0
1979-07-26 06:23:02.450 ,1,0,0.,12.0,0.,12.0,0.,12.0,0.,12.0
1979-07-26 06:23:14.450 ,0,1,0.,12.0,0.,12.0,0.,12.0,0.,12.0
1979-07-26 06:23:26.450 ,0,1,0.,12.0,0.,12.0,0.,12.0,0.,12.0
1979-07-26 06:23:38.450 ,0,0,0.,12.0,0.,12.0,0.,12.0,0.,12.0
1979-07-26 06:23:50.450 ,0,0,0.,12.0,0.,12.0,0.,12.0,0.,12.0
1979-07-26 06:24:02.450 ,0,1,0.,12.0,0.,12.0,0.,12.0,0.,12.0
1979-07-26 06:24:14.450 ,0,1,0.,12.0,0.,12.0,0.,12.0,0.,12.0
1979-07-26 06:24:26.450 ,0,0,0.,12.0,0.,12.0,0.,12.0,0.,12.0
1979-07-26 06:24:38.450 ,0,0,0.,12.0,0.,12.0,0.,12.0,0.,12.0
1979-07-26 06:24:50.450 ,1,1,0.,12.0,0.,12.0,0.,12.0,0.,12.0
1979-07-26 06:25:02.450 ,1,1,0.,12.0,0.,12.0,0.,12.0,0.,12.0
1979-07-26 06:25:14.450 ,1,0,0.,12.0,0.,12.0,0.,12.0,0.,12.0
1979-07-26 06:25:26.450 ,1,0,0.,12.0,0.,12.0,0.,12.0,0.,12.0
1979-07-26 06:25:38.450 ,2,1,0.,12.0,0.,12.0,0.,12.0,0.,12.0
1979-07-26 06:25:50.450 ,2,1,0.,12.0,0.,12.0,0.,12.0,0.,12.0
1979-07-26 06:26:02.450 ,2,0,0.,12.0,0.,12.0,0.,12.0,0.,12.0
1979-07-26 06:26:14.450 ,2,0,0.,12.0,0.,12.0,0.,12.0,0.,12.0
1979-07-26 06:26:26.450 ,3,1,0.,12.0,0.,12.0,0.,12.0,0.,12.0
1979-07-26 06:26:38.450 ,3,1,0.,12.0,0.,12.0,0.,12.0,0.,12.0
1979-07-26 06:26:50.450 ,3,0,0.,12.0,0.,12.0,0.,12.0,0.,12.0
1979-07-26 06:27:02.450 ,3,0,0.,12.0,0.,12.0,0.,12.0,0.,12.0
1979-07-26 06:27:14.450 ,4,1,0.,12.0,0.,12.0,0.,12.0,0.,12.0
1979-07-26 06:27:26.450 ,4,1,0.,12.0,0.,12.0,0.,12.0,0.,12.0
1979-07-26 06:27:38.450 ,4,0,0.,12.0,0.,12.0,0.,12.0,0.,12.0
1979-07-26 06:27:50.450 ,4,0,0.,12.0,0.,12.0,0.,12.0,0.,12.0
1979-07-26 06:28:02.450 ,5,1,0.,12.0,0.,12.0,0.,12.0,0.,12.0
1979-07-26 06:28:14.450 ,5,1,0.,12.0,0.,12.0,0.,12.0,0.,12.0
1979-07-26 06:28:26.450 ,5,0,0.,12.0,0.,12.0,0.,12.0,0.,12.0
1979-07-26 06:28:38.450 ,5,0,0.,12.0,0.,12.0,0.,12.0,0.,12.0
1979-07-26 06:28:50.450 ,6,1,0.,12.0,0.,12.0,0.,12.0,0.,12.0
1979-07-26 06:29:02.450 ,6,1,0.,12.0,0.,12.0,0.,12.0,0.,12.0
1979-07-26 06:29:14.450 ,6,0,0.,12.0,0.,12.0,0.,12.0,0.,12.0
1979-07-26 06:29:26.450 ,6,0,0.,12.0,0.,12.0,0.,12.0,0.,12.0
1979-07-26 06:29:38.450 ,7,1,0.,12.0,0.,12.0,0.,12.0,0.,12.0
1979-07-26 06:29:50.450 ,7,1,0.,12.0,0.,12.0,0.,12.0,0.,12.0
1979-07-26 06:30:02.450 ,7,0,0.,12.0,0.,12.0,0.,12.0,0.,12.0
1979-07-26 06:30:14.450 ,7,0,0.,12.0,0.,12.0,0.,12.0,0.,12.0
1979-07-26 06:30:26.450 ,7,1,0.,12.0,0.,12.0,0.,12.0,0.,12.0
1979-07-26 06:30:38.450 ,7,1,0.,12.0,0.,12.0,0.,12.0,0.,12.0
1979-07-26 06:30:50.450 ,7,0,0.,12.0,0.,12.0,0.,12.0,0.,12.0
1979-07-26 06:31:02.450 ,7,0,0.,12.0,0.,12.0,0.,12.0,0.,12.0
1979-07-26 06:31:14.450 ,6,1,0.,12.0,0.,12.0,0.,12.0,0.,12.0
1979-07-26 06:31:26.450 ,6,1,0.,12.0,0.,12.0,0.,12.0,0.,12.0
1979-07-26 06:31:38.450 ,6,0,0.,12.0,0.,12.0,0.,12.0,0.,12.0
1979-07-26 06:31:50.450 ,6,0,0.,12.0,0.,12.0,0.,12.0,0.,12.0
1979-07-26 06:32:02.450 ,5,1,0.,12.0,0.,12.0,0.,12.0,0.,12.0
1979-07-26 06:32:14.450 ,5,1,0.,12.0,0.,12.0,0.,12.0,0.,12.0
1979-07-26 06:32:26.450 ,5,0,0.,12.0,0.,12.0,0.,12.0,0.,12.0
1979-07-26 06:32:38.450 ,5,0,0.,12.0,0.,12.0,0.,12.0,0.,12.0
1979-07-26 06:32:50.450 ,4,1,0.,12.0,0.,12.0,0.,12.0,0.,12.0
1979-07-26 06:33:02.450 ,4,1,0.,12.0,0.,12.0,0.,12.0,0.,12.0
1979-07-26 06:33:14.450 ,4,0,0.,12.0,0.,12.0,0.,12.0,0.,12.0
1979-07-26 06:33:26.450 ,4,0,0.,12.0,0.,12.0,0.,12.0,0.,12.0
1979-07-26 06:33:38.450 ,3,1,0.,12.0,0.,12.0,0.,12.0,0.,12.0
1979-07-26 06:33:50.450 ,3,1,0.,12.0,0.,12.0,0.,12.0,0.,12.0
1979-07-26 06:34:02.450 ,3,0,0.,12.0,0.,12.0,0.,12.0,0.,12.0
1979-07-26 06:34:14.450 ,3,0,0.,12.0,0.,12.0,0.,12.0,0.,12.0
1979-07-26 06:34:26.450 ,2,1,0.,12.0,0.,12.0,0.,12.0,0.,12.0
1979-07-26 06:34:38.450 ,2,1,0.,12.0,0.,12.0,0.,12.0,0.,12.0
1979-07-26 06:34:50.450 ,2,0,0.,12.0,0.,12.0,0.,12.0,0.,12.0
1979-07-26 06:35:02.450 ,2,0,0.,12.0,0.,12.0,0.,12.0,0.,12.0
1979-07-26 06:35:14.450 ,1,1,0.,12.0,0.,12.0,0.,12.0,0.,12.0
1979-07-26 06:35:26.450 ,1,1,0.,12.0,0.,12.0,0.,12.0,0.,12.0
1979-07-26 06:35:38.450 ,1,0,0.,12.0,0.,12.0,0.,12.0,0.,12.0
1979-07-26 06:35:50.450 ,1,0,0.,12.0,0.,12.0,0.,12.0,0.,12.0
1979-07-26 06:36:02.450 ,0,1,0.,12.0,0.,12.0,0.,12.0,0.,12.0
1979-07-26 06:36:14.450 ,0,1,0.,12.0,0.,12.0,0.,12.0,0.,12.0
1979-07-26 06:36:26.450 ,0,0,0.,12.0,0.,12.0,0.,12.0,0.,12.0
1979-07-26 06:36:38.450 ,0,0,0.,12.0,0.,12.0,0.,12.0,0.,12.0
1979-07-26 06:36:50.450 ,0,1,0.,12.0,0.,12.0,0.,12.0,0.,12.0
1979-07-26 06:37:02.450 ,0,1,0.,12.0,0.,12.0,0.,12.0,0.,12.0
1979-07-26 06:37:14.450 ,0,0,0.,12.0,0.,12.0,0.,12.0,0.,12.0
1979-07-26 06:37:26.450 ,0,0,0.,12.0,0.,12.0,0.,12.0,0.,12.0
1979-07-26 06:37:38.450 ,1,1,0.,12.0,0.,12.0,0.,12.0,0.,12.0
1979-07-26 06:37:50.450 ,1,1,0.,12.0,0.,12.0,0.,12.0,0.,12.0
1979-07-26 06:38:02.450 ,1,0,0.,12.0,0.,12.0,0.,12.0,0.,12.0
1979-07-26 06:38:14.450 ,1,0,0.,12.0,0.,12.0,0.,12.0,0.,12.0
1979-07-26 06:38:26.450 ,0,0,0.,12.0,0.,12.0,0.,12.0,0.,12.0
1979-07-26 06:38:38.450 ,0,0,,0,,0,,0,,0
1979-07-26 06:38:50.450 ,0,0,,0,,0,,0,,0
1979-07-26 06:39:02.450 ,0,0,,0,,0,,0,,0
1979-07-26 06:38:50.450 ,2,0,0.,12.0,0.,12.0,0.,12.0,0.,12.0
1979-07-26 06:39:02.450 ,2,0,0.,12.0,0.,12.0,0.,12.0,0.,12.0
1979-07-26 06:39:14.450 ,3,1,0.,12.0,0.,12.0,0.,12.0,0.,12.0
1979-07-26 06:39:26.450 ,3,1,0.,12.0,0.,12.0,0.,12.0,0.,12.0
1979-07-26 06:39:38.450 ,3,0,0.,12.0,0.,12.0,0.,12.0,0.,12.0
1979-07-26 06:39:50.450 ,3,0,0.,12.0,0.,12.0,0.,12.0,0.,12.0
1979-07-26 06:40:02.450 ,4,1,0.,12.0,0.,12.0,0.,12.0,0.,12.0
1979-07-26 06:40:14.450 ,4,1,0.,12.0,0.,12.0,0.,12.0,0.,12.0
1979-07-26 06:40:50.450 ,0,0,0.,12.0,0.,12.0,0.,12.0,0.,12.0
1979-07-26 06:41:02.450 ,0,0,0.,12.0,0.,12.0,0.,12.0,0.,12.0
1979-07-26 06:41:14.450 ,0,0,0.,12.0,0.,12.0,0.,12.0,0.,12.0
1979-07-26 06:41:26.450 ,0,0,0.,12.0,0.,12.0,0.,12.0,0.,12.0
1979-07-26 06:41:38.450 ,6,1,0.,12.0,0.,12.0,0.,12.0,0.,12.0
1979-07-26 06:41:50.450 ,6,1,0.,12.0,0.,12.0,0.,12.0,0.,12.0
1979-07-26 06:42:02.450 ,6,0,0.,12.0,0.,12.0,0.,12.0,0.,12.0
1979-07-26 06:42:14.450 ,6,0,0.,12.0,0.,12.0,0.,12.0,0.,12.0
1979-07-26 06:42:26.450 ,7,0,0.,12.0,0.,12.0,0.,12.0,0.,12.0
1979-07-26 06:42:38.450 ,7,0,0.,12.0,0.,12.0,0.,12.0,0.,12.0
1979-07-26 06:42:50.450 ,7,0,0.,12.0,0.,12.0,0.,12.0,0.,12.0
1979-07-26 06:43:02.450 ,7,0,0.,12.0,0.,12.0,0.,12.0,0.,12.0
1979-07-26 06:43:14.450 ,4,1,0.,12.0,0.,12.0,0.,12.0,0.,12.0
1979-07-26 06:43:26.450 ,4,1,0.,12.0,0.,12.0,0.,12.0,0.,12.0
1979-07-26 06:43:38.450 ,0,1,0.,12.0,0.,12.0,0.,12.0,0.,12.0
1979-07-26 06:43:50.450 ,0,1,0.,12.0,0.,12.0,0.,12.0,0.,12.0
1979-07-26 06:44:02.450 ,3,1,0.,12.0,0.,12.0,0.,12.0,0.,12.0
1979-07-26 06:44:14.450 ,3,1,0.,12.0,0.,12.0,0.,12.0,0.,12.0
1979-07-26 06:44:26.450 ,7,1,0.,12.0,0.,12.0,0.,12.0,0.,12.0
1979-07-26 06:44:38.450 ,7,1,0.,12.0,0.,12.0,0.,12.0,0.,12.0
1979-07-26 06:44:50.450 ,4,1,0.,12.0,0.,12.0,0.,12.0,0.,12.0
1979-07-26 06:45:02.450 ,4,1,0.,12.0,0.,12.0,0.,12.0,0.,12.0
1979-07-26 06:45:14.450 ,0,1,0.,12.0,0.,12.0,0.,12.0,0.,12.0
1979-07-26 06:45:26.450 ,0,1,0.,12.0,0.,12.0,0.,12.0,0.,12.0
1979-07-26 06:45:38.450 ,3,1,0.,12.0,0.,12.0,0.,12.0,0.,12.0
1979-07-26 06:45:50.450 ,3,1,0.,12.0,0.,12.0,0.,12.0,0.,12.0
1979-07-26 06:46:02.450 ,7,1,0.,12.0,0.,12.0,0.,12.0,0.,12.0
1979-07-26 06:46:14.450 ,7,1,0.,12.0,0.,12.0,0.,12.0,0.,12.0
1979-07-26 06:46:26.450 ,4,1,0.,12.0,0.,12.0,0.,12.0,0.,12.0
1979-07-26 06:46:38.450 ,4,1,0.,12.0,0.,12.0,0.,12.0,0.,12.0
1979-07-26 06:46:50.450 ,0,1,0.,12.0,0.,12.0,0.,12.0,0.,12.0
1979-07-26 06:47:02.450 ,0,1,0.,12.0,0.,12.0,0.,12.0,0.,12.0
1979-07-26 06:47:14.450 ,3,1,0.,12.0,0.,12.0,0.,12.0,0.,12.0
1979-07-26 06:47:26.450 ,3,1,0.,12.0,0.,12.0,0.,12.0,0.,12.0
1979-07-26 06:47:38.450 ,7,1,0.,12.0,0.,12.0,0.,12.0,0.,12.0
1979-07-26 06:47:50.450 ,7,1,0.,12.0,0.,12.0,0.,12.0,0.,12.0
1979-07-26 06:48:02.450 ,4,1,0.,12.0,0.,12.0,0.,12.0,0.,12.0
1979-07-26 06:48:14.450 ,4,1,0.,12.0,0.,12.0,0.,12.0,0.,12.0
1979-07-26 06:48:26.450 ,0,1,0.,12.0,0.,12.0,0.,12.0,0.,12.0
1979-07-26 06:48:38.450 ,0,1,0.,12.0,0.,12.0,0.,12.0,0.,12.0
1979-07-26 06:48:50.450 ,3,1,0.,12.0,0.,12.0,0.,12.0,0.,12.0
1979-07-26 06:49:02.450 ,3,1,0.,12.0,0.,12.0,0.,12.0,0.,12.0
1979-07-26 06:49:14.450 ,7,1,0.,12.0,0.,12.0,0.,12.0,0.,12.0
1979-07-26 06:49:26.450 ,7,1,0.,12.0,0.,12.0,0.,12.0,0.,12.0
1979-07-26 06:49:38.450 ,4,1,0.,12.0,0.,12.0,0.,12.0,0.,12.0
1979-07-26 06:49:50.450 ,4,1,0.,12.0,0.,12.0,0.,12.0,0.,12.0
1979-07-26 06:50:02.450 ,0,1,0.,12.0,0.,12.0,0.,12.0,0.,12.0
1979-07-26 06:50:14.450 ,0,1,0.,12.0,0.,12.0,0.,12.0,0.,12.0
1979-07-26 06:50:26.450 ,3,1,0.,12.0,0.,12.0,0.,12.0,0.,12.0
1979-07-26 06:50:38.450 ,3,1,0.,12.0,0.,12.0,0.,12.0,0.,12.0
1979-07-26 06:50:50.450 ,7,1,0.,12.0,0.,12.0,0.,12.0,0.,12.0
1979-07-26 06:51:02.450 ,7,1,0.,12.0,0.,12.0,0.,12.0,0.,12.0
1979-07-26 06:51:14.450 ,4,1,0.,12.0,0.,12.0,0.,12.0,0.,12.0
1979-07-26 06:51:26.450 ,4,1,0.,12.0,0.,12.0,0.,12.0,0.,12.0
1979-07-26 06:51:38.450 ,0,1,0.,12.0,0.,12.0,0.,12.0,0.,12.0
1979-07-26 06:51:50.450 ,0,1,0.,12.0,0.,12.0,0.,12.0,0.,12.0
1979-07-26 06:52:02.450 ,3,1,0.,12.0,0.,12.0,0.,12.0,0.,12.0
1979-07-26 06:52:14.450 ,3,1,0.,12.0,0.,12.0,0.,12.0,0.,12.0
1979-07-26 06:52:26.450 ,7,1,0.,12.0,0.,12.0,0.,12.0,0.,12.0
1979-07-26 06:52:38.450 ,7,1,0.,12.0,0.,12.0,0.,12.0,0.,12.0
1979-07-26 06:52:50.450 ,4,1,0.,12.0,0.,12.0,0.,12.0,0.,12.0
1979-07-26 06:53:02.450 ,4,1,0.,12.0,0.,12.0,0.,12.0,0.,12.0
1979-07-26 06:53:14.450 ,0,1,0.,12.0,0.,12.0,0.,12.0,0.,12.0
1979-07-26 06:53:26.450 ,0,1,0.,12.0,0.,12.0,0.,12.0,0.,12.0
1979-07-26 06:53:38.450 ,0,0,0.,12.0,0.,12.0,0.,12.0,0.,12.0
1979-07-26 06:53:50.450 ,0,0,0.,12.0,0.,12.0,0.,12.0,0.,12.0
1979-07-26 06:54:02.450 ,0,0,0.,12.0,0.,12.0,0.,12.0,0.,12.0
1979-07-26 06:54:14.450 ,0,0,0.,12.0,0.,12.0,0.,12.0,0.,12.0
1979-07-26 06:54:26.450 ,5,1,0.,12.0,0.,12.0,0.,12.0,0.,12.0
1979-07-26 06:54:38.450 ,5,1,0.,12.0,0.,12.0,0.,12.0,0.,12.0
1979-07-26 06:54:50.450 ,5,0,0.,12.0,0.,12.0,0.,12.0,0.,12.0
1979-07-26 06:55:02.450 ,5,0,0.,12.0,0.,12.0,0.,12.0,0.,12.0
1979-07-26 06:55:14.450 ,4,1,0.,12.0,0.,12.0,0.,12.0,0.,12.0
1979-07-26 06:55:26.450 ,4,1,0.,12.0,0.,12.0,0.,12.0,0.,12.0
1979-07-26 06:55:38.450 ,4,0,0.,12.0,0.,12.0,0.,12.0,0.,12.0
1979-07-26 06:55:50.450 ,4,0,0.,12.0,0.,12.0,0.,12.0,0.,12.0
1979-07-26 06:56:02.450 ,3,1,0.,12.0,0.,12.0,0.,12.0,0.,12.0
1979-07-26 06:56:14.450 ,3,1,0.,12.0,0.,12.0,0.,12.0,0.,12.0
1979-07-26 06:56:26.450 ,3,0,0.,12.0,0.,12.0,0.,12.0,0.,12.0
1979-07-26 06:56:38.450 ,3,0,0.,12.0,0.,12.0,0.,12.0,0.,12.0
1979-07-26 06:56:50.450 ,2,1,0.,12.0,0.,12.0,0.,12.0,0.,12.0
1979-07-26 06:57:02.450 ,2,1,0.,12.0,0.,12.0,0.,12.0,0.,12.0
1979-07-26 06:57:14.450 ,2,0,0.,12.0,0.,12.0,0.,12.0,0.,12.0
1979-07-26 06:57:26.450 ,2,0,0.,12.0,0.,12.0,0.,12.0,0.,12.0
1979-07-26 06:57:38.450 ,1,1,0.,12.0,0.,12.0,0.,12.0,0.,12.0
1979-07-26 06:57:50.450 ,1,1,0.,12.0,0.,12.0,0.,12.0,0.,12.0
1979-07-26 06:58:02.450 ,1,0,0.,12.0,0.,12.0,0.,12.0,0.,12.0
1979-07-26 06:58:14.450 ,1,0,0.,12.0,0.,12.0,0.,12.0,0.,12.0
1979-07-26 06:58:26.450 ,0,1,0.,12.0,0.,12.0,0.,12.0,0.,12.0
1979-07-26 06:58:38.450 ,0,1,0.,12.0,0.,12.0,0.,12.0,0.,12.0
1979-07-26 06:58:50.450 ,0,0,0.,12.0,0.,12.0,0.,12.0,0.,12.0
1979-07-26 06:59:02.450 ,0,0,0.,12.0,0.,12.0,0.,12.0,0.,12.0
1979-07-26 06:59:14.450 ,0,1,0.,12.0,0.,12.0,0.,12.0,0.,12.0
1979-07-26 06:59:26.450 ,0,1,0.,12.0,0.,12.0,0.,12.0,0.,12.0
1979-07-26 06:59:38.450 ,0,0,0.,12.0,0.,12.0,0.,12.0,0.,12.0
1979-07-26 06:59:50.450 ,0,0,0.,12.0,0.,12.0,0.,12.0,0.,12.0
1979-07-26 07:00:02.450 ,1,1,0.,12.0,0.,12.0,0.,12.0,0.,12.0
1979-07-26 07:00:14.450 ,1,1,0.,12.0,0.,12.0,0.,12.0,0.,12.0
1979-07-26 07:00:26.450 ,1,0,0.,12.0,0.,12.0,0.,12.0,0.,12.0
1979-07-26 07:00:38.450 ,1,0,0.,12.0,0.,12.0,0.,12.0,0.,12.0
1979-07-26 07:00:50.450 ,2,1,0.,12.0,0.,12.0,0.,12.0,0.,12.0
1979-07-26 07:01:02.450 ,2,1,0.,12.0,0.,12.0,0.,12.0,0.,12.0
1979-07-26 07:01:14.450 ,2,0,0.,12.0,0.,12.0,0.,12.0,0.,12.0
1979-07-26 07:01:26.450 ,2,0,0.,12.0,0.,12.0,0.,12.0,0.,12.0
1979-07-26 07:01:38.450 ,3,1,0.,12.0,0.,12.0,0.,12.0,0.,12.0
1979-07-26 07:01:50.450 ,3,1,0.,12.0,0.,12.0,0.,12.0,0.,12.0
1979-07-26 07:02:02.450 ,3,0,0.,12.0,0.,12.0,0.,12.0,0.,12.0
1979-07-26 07:02:14.450 ,3,0,0.,12.0,0.,12.0,0.,12.0,0.,12.0
1979-07-26 07:02:26.450 ,4,1,0.,12.0,0.,12.0,0.,12.0,0.,12.0
1979-07-26 07:02:38.450 ,4,1,0.,12.0,0.,12.0,0.,12.0,0.,12.0
1979-07-26 07:02:50.450 ,4,0,0.,12.0,0.,12.0,0.,12.0,0.,12.0
1979-07-26 07:03:02.450 ,4,0,0.,12.0,0.,12.0,0.,12.0,0.,12.0
1979-07-26 07:03:14.450 ,5,1,0.,12.0,0.,12.0,0.,12.0,0.,12.0
1979-07-26 07:03:26.450 ,5,1,0.,12.0,0.,12.0,0.,12.0,0.,12.0
1979-07-26 07:03:38.450 ,5,0,0.,12.0,0.,12.0,0.,12.0,0.,12.0
1979-07-26 07:03:50.450 ,5,0,0.,12.0,0.,12.0,0.,12.0,0.,12.0
1979-07-26 07:04:02.450 ,6,1,0.,12.0,0.,12.0,0.,12.0,0.,12.0
1979-07-26 07:04:14.450 ,6,1,0.,12.0,0.,12.0,0.,12.0,0.,12.0
1979-07-26 07:04:26.450 ,6,0,0.,12.0,0.,12.0,0.,12.0,0.,12.0
1979-07-26 07:04:38.450 ,6,0,0.,12.0,0.,12.0,0.,12.0,0.,12.0
1979-07-26 07:04:50.450 ,7,1,0.,12.0,0.,12.0,0.,12.0,0.,12.0
1979-07-26 07:05:02.450 ,7,1,0.,12.0,0.,12.0,0.,12.0,0.,12.0
1979-07-26 07:05:14.450 ,7,0,0.,12.0,0.,12.0,0.,12.0,0.,12.0
1979-07-26 07:05:26.450 ,7,0,0.,12.0,0.,12.0,0.,12.0,0.,12.0
1979-07-26 07:05:38.450 ,7,1,0.,12.0,0.,12.0,0.,12.0,0.,12.0
1979-07-26 07:05:50.450 ,7,1,0.,12.0,0.,12.0,0.,12.0,0.,12.0
1979-07-26 07:06:02.450 ,7,0,0.,12.0,0.,12.0,0.,12.0,0.,12.0
1979-07-26 07:06:14.450 ,7,0,0.,12.0,0.,12.0,0.,12.0,0.,12.0
1979-07-26 07:06:26.450 ,6,1,0.,12.0,0.,12.0,0.,12.0,0.,12.0
1979-07-26 07:06:38.450 ,6,1,0.,12.0,0.,12.0,0.,12.0,0.,12.0
1979-07-26 07:06:50.450 ,6,0,0.,12.0,0.,12.0,0.,12.0,0.,12.0
1979-07-26 07:07:02.450 ,6,0,0.,12.0,0.,12.0,0.,12.0,0.,12.0
1979-07-26 07:07:14.450 ,5,1,0.,12.0,0.,12.0,0.,12.0,0.,12.0
1979-07-26 07:07:26.450 ,5,1,0.,12.0,0.,12.0,0.,12.0,0.,12.0
1979-07-26 07:07:38.450 ,5,0,0.,12.0,0.,12.0,0.,12.0,0.,12.0
1979-07-26 07:07:50.450 ,5,0,0.,12.0,0.,12.0,0.,12.0,0.,12.0
1979-07-26 07:08:02.450 ,4,1,0.,12.0,0.,12.0,0.,12.0,0.,12.0
1979-07-26 07:08:14.450 ,4,1,0.,12.0,0.,12.0,0.,12.0,0.,12.0
1979-07-26 07:08:26.450 ,4,0,0.,12.0,0.,12.0,0.,12.0,0.,12.0
1979-07-26 07:08:38.450 ,4,0,0.,12.0,0.,12.0,0.,12.0,0.,12.0
1979-07-26 07:08:50.450 ,3,1,0.,12.0,0.,12.0,0.,12.0,0.,12.0
1979-07-26 07:09:02.450 ,3,1,0.,12.0,0.,12.0,0.,12.0,0.,12.0
1979-07-26 07:09:14.450 ,3,0,0.,12.0,0.,12.0,0.,12.0,0.,12.0
1979-07-26 07:09:26.450 ,3,0,0.,12.0,0.,12.0,0.,12.0,0.,12.0
1979-07-26 07:09:38.450 ,2,1,0.,12.0,0.,12.0,0.,12.0,0.,12.0
1979-07-26 07:09:50.450 ,2,1,0.,12.0,0.,12.0,0.,12.0,0.,12.0
1979-07-26 07:10:02.450 ,2,0,0.,12.0,0.,12.0,0.,12.0,0.,12.0
1979-07-26 07:10:14.450 ,2,0,0.,12.0,0.,12.0,0.,12.0,0.,12.0
1979-07-26 07:10:26.450 ,1,1,0.,12.0,0.,12.0,0.,12.0,0.,12.0
1979-07-26 07:10:38.450 ,1,1,0.,12.0,0.,12.0,0.,12.0,0.,12.0
1979-07-26 07:10:50.450 ,1,0,0.,12.0,0.,12.0,0.,12.0,0.,12.0
1979-07-26 07:11:02.450 ,1,0,0.,12.0,0.,12.0,0.,12.0,0.,12.0
1979-07-26 07:11:14.450 ,0,1,0.,12.0,0.,12.0,0.,12.0,0.,12.0
1979-07-26 07:11:26.450 ,0,1,0.,12.0,0.,12.0,0.,12.0,0.,12.0
1979-07-26 07:11:38.450 ,0,0,0.,12.0,0.,12.0,0.,12.0,0.,12.0
1979-07-26 07:11:50.450 ,0,0,0.,12.0,0.,12.0,0.,12.0,0.,12.0
1979-07-26 07:12:02.450 ,0,1,0.,12.0,0.,12.0,0.,12.0,0.,12.0
1979-07-26 07:12:14.450 ,0,1,0.,12.0,0.,12.0,0.,12.0,0.,12.0
1979-07-26 07:12:26.450 ,0,0,0.,12.0,0.,12.0,0.,12.0,0.,12.0
1979-07-26 07:12:38.450 ,0,0,0.,12.0,0.,12.0,0.,12.0,0.,12.0
1979-07-26 07:12:50.450 ,1,1,0.,12.0,0.,12.0,0.,12.0,0.,12.0
1979-07-26 07:13:02.450 ,1,1,0.,12.0,0.,12.0,0.,12.0,0.,12.0
1979-07-26 07:13:14.450 ,1,0,0.,12.0,0.,12.0,0.,12.0,0.,12.0
1979-07-26 07:13:26.450 ,1,0,0.,12.0,0.,12.0,0.,12.0,0.,12.0
1979-07-26 07:13:38.450 ,2,1,0.,12.0,0.,12.0,0.,12.0,0.,12.0
1979-07-26 07:13:50.450 ,2,1,0.,12.0,0.,12.0,0.,12.0,0.,12.0
1979-07-26 07:14:02.450 ,2,0,0.,12.0,0.,12.0,0.,12.0,0.,12.0
1979-07-26 07:14:14.450 ,2,0,1.,12.0,0.,12.0,0.,12.0,0.,12.0
1979-07-26 07:14:26.450 ,3,1,0.,12.0,0.,12.0,0.,12.0,0.,12.0
1979-07-26 07:14:38.450 ,3,1,0.,12.0,0.,12.0,0.,12.0,0.,12.0
1979-07-26 07:14:50.450 ,3,0,0.,12.0,0.,12.0,0.,12.0,0.,12.0
1979-07-26 07:15:02.450 ,3,0,0.,12.0,0.,12.0,0.,12.0,0.,12.0
1979-07-26 07:15:14.450 ,4,1,0.,12.0,0.,12.0,0.,12.0,0.,12.0
1979-07-26 07:15:26.450 ,4,1,0.,12.0,0.,12.0,0.,12.0,0.,12.0
1979-07-26 07:15:38.450 ,4,0,0.,12.0,0.,12.0,0.,12.0,0.,12.0
1979-07-26 07:15:50.450 ,4,0,0.,12.0,0.,12.0,0.,12.0,0.,12.0
1979-07-26 07:16:02.450 ,5,1,0.,12.0,0.,12.0,0.,12.0,0.,12.0
1979-07-26 07:16:14.450 ,5,1,0.,12.0,0.,12.0,0.,12.0,0.,12.0
1979-07-26 07:16:26.450 ,5,0,0.,12.0,0.,12.0,0.,12.0,0.,12.0
1979-07-26 07:16:38.450 ,5,0,0.,12.0,0.,12.0,0.,12.0,0.,12.0
1979-07-26 07:16:50.450 ,6,1,0.,12.0,0.,12.0,0.,12.0,0.,12.0
1979-07-26 07:17:02.450 ,6,1,0.,12.0,0.,12.0,0.,12.0,0.,12.0
1979-07-26 07:17:14.450 ,6,0,0.,12.0,0.,12.0,0.,12.0,0.,12.0
1979-07-26 07:17:26.450 ,6,0,0.,12.0,0.,12.0,0.,12.0,0.,12.0
1979-07-26 07:17:38.450 ,7,1,0.,12.0,0.,12.0,0.,12.0,0.,12.0